TimeEDT,TemperatureF,Dew PointF,Humidity,Sea Level PressureIn,VisibilityMPH,Wind Direction,Wind SpeedMPH,Gust SpeedMPH,PrecipitationIn,Events,Conditions,WindDirDegrees,DateUTC
12:15 AM,68.0,60.8,78,30.10,10.0,Calm,Calm,-,N/A,,Clear,0,2013-07-27 04:15:00
12:35 AM,66.2,60.8,83,30.09,10.0,Calm,Calm,-,N/A,,Clear,0,2013-07-27 04:35:00
12:55 AM,66.2,60.8,83,30.09,10.0,Calm,Calm,-,N/A,,Clear,0,2013-07-27 04:55:00
1:15 AM,66.2,60.8,83,30.09,10.0,Calm,Calm,-,N/A,,Clear,0,2013-07-27 05:15:00
1:35 AM,64.4,60.8,88,30.09,10.0,Calm,Calm,-,N/A,,Clear,0,2013-07-27 05:35:00
1:55 AM,64.4,60.8,88,30.08,10.0,Calm,Calm,-,N/A,,Clear,0,2013-07-27 05:55:00
2:15 AM,64.4,60.8,88,30.08,10.0,Calm,Calm,-,N/A,,Clear,0,2013-07-27 06:15:00
2:35 AM,64.4,60.8,88,30.08,10.0,Calm,Calm,-,N/A,,Clear,0,2013-07-27 06:35:00
2:55 AM,62.6,60.8,94,30.08,10.0,Calm,Calm,-,N/A,,Clear,0,2013-07-27 06:55:00
3:15 AM,62.6,60.8,94,30.07,10.0,Calm,Calm,-,N/A,,Clear,0,2013-07-27 07:15:00
3:35 AM,62.6,60.8,94,30.07,10.0,Calm,Calm,-,N/A,,Clear,0,2013-07-27 07:35:00
3:55 AM,62.6,60.8,94,30.07,10.0,Calm,Calm,-,N/A,,Clear,0,2013-07-27 07:55:00
4:15 AM,62.6,60.8,94,30.07,10.0,Calm,Calm,-,N/A,,Clear,0,2013-07-27 08:15:00
4:35 AM,62.6,60.8,94,30.07,10.0,Calm,Calm,-,N/A,,Clear,0,2013-07-27 08:35:00
4:55 AM,62.6,60.8,94,30.07,10.0,Calm,Calm,-,N/A,,Clear,0,2013-07-27 08:55:00
5:15 AM,62.6,60.8,94,30.07,7.0,Calm,Calm,-,N/A,,Clear,0,2013-07-27 09:15:00
5:35 AM,62.6,60.8,94,30.07,3.0,Calm,Calm,-,N/A,,Clear,0,2013-07-27 09:35:00
5:55 AM,62.6,60.8,94,30.07,1.5,Calm,Calm,-,N/A,,Clear,0,2013-07-27 09:55:00
6:15 AM,62.6,60.8,94,30.07,0.2,Calm,Calm,-,N/A,Fog,Fog,0,2013-07-27 10:15:00
6:35 AM,62.6,62.6,100,30.07,0.2,Calm,Calm,-,N/A,Fog,Fog,0,2013-07-27 10:35:00
6:55 AM,62.6,62.6,100,30.07,0.2,Calm,Calm,-,N/A,Fog,Fog,0,2013-07-27 10:55:00
7:15 AM,62.6,62.6,100,30.07,0.5,Calm,Calm,-,N/A,Fog,Fog,0,2013-07-27 11:15:00
7:35 AM,64.4,64.4,100,30.07,0.2,Calm,Calm,-,N/A,Fog,Fog,0,2013-07-27 11:35:00
7:55 AM,64.4,64.4,100,30.07,0.2,Calm,Calm,-,N/A,Fog,Fog,0,2013-07-27 11:55:00
8:15 AM,64.4,64.4,100,30.08,0.2,Calm,Calm,-,N/A,Fog,Fog,0,2013-07-27 12:15:00
8:35 AM,66.2,64.4,94,30.08,0.2,Calm,Calm,-,N/A,Fog,Fog,0,2013-07-27 12:35:00
8:55 AM,66.2,66.2,100,30.09,0.2,Calm,Calm,-,N/A,Fog,Fog,0,2013-07-27 12:55:00
9:15 AM,68.0,66.2,94,30.08,0.2,Calm,Calm,-,N/A,Fog,Fog,0,2013-07-27 13:15:00
9:35 AM,69.8,68.0,94,30.09,1.2,Calm,Calm,-,N/A,,Overcast,0,2013-07-27 13:35:00
9:55 AM,69.8,68.0,94,30.09,3.0,Calm,Calm,-,N/A,,Overcast,0,2013-07-27 13:55:00
10:15 AM,71.6,69.8,94,30.08,6.0,SSE,3.5,-,N/A,,Mostly Cloudy,150,2013-07-27 14:15:00
10:35 AM,73.4,69.8,88,30.08,9.0,SSE,3.5,-,N/A,,Partly Cloudy,160,2013-07-27 14:35:00
10:55 AM,75.2,69.8,83,30.09,10.0,Calm,Calm,-,N/A,,Mostly Cloudy,0,2013-07-27 14:55:00
11:15 AM,75.2,69.8,83,30.08,10.0,SE,4.6,-,N/A,,Mostly Cloudy,130,2013-07-27 15:15:00
11:35 AM,75.2,68.0,78,30.08,10.0,SSE,5.8,-,N/A,,Mostly Cloudy,160,2013-07-27 15:35:00
11:55 AM,78.8,68.0,69,30.08,10.0,SSE,6.9,-,N/A,,Scattered Clouds,150,2013-07-27 15:55:00
12:15 PM,75.2,66.2,73,30.08,10.0,SE,5.8,-,N/A,,Mostly Cloudy,140,2013-07-27 16:15:00
12:35 PM,80.6,66.2,61,30.07,10.0,SSE,4.6,-,N/A,,Mostly Cloudy,160,2013-07-27 16:35:00
12:55 PM,78.8,66.2,65,30.07,10.0,SE,5.8,-,N/A,,Mostly Cloudy,130,2013-07-27 16:55:00
1:15 PM,78.8,66.2,65,30.06,10.0,South,4.6,-,N/A,,Scattered Clouds,180,2013-07-27 17:15:00
1:35 PM,80.6,66.2,61,30.05,10.0,SE,5.8,-,N/A,,Scattered Clouds,140,2013-07-27 17:35:00
1:55 PM,80.6,66.2,61,30.05,10.0,South,5.8,-,N/A,,Scattered Clouds,170,2013-07-27 17:55:00
2:15 PM,80.6,66.2,61,30.04,10.0,SSE,8.1,-,N/A,,Scattered Clouds,150,2013-07-27 18:15:00
2:35 PM,80.6,66.2,61,30.03,10.0,SSE,5.8,-,N/A,,Partly Cloudy,150,2013-07-27 18:35:00
2:55 PM,78.8,66.2,65,30.02,10.0,SSE,4.6,-,N/A,,Scattered Clouds,150,2013-07-27 18:55:00
3:15 PM,80.6,66.2,61,30.01,10.0,SSE,8.1,-,N/A,,Scattered Clouds,150,2013-07-27 19:15:00
3:35 PM,80.6,66.2,61,30.01,10.0,SE,5.8,-,N/A,,Mostly Cloudy,130,2013-07-27 19:35:00
3:55 PM,80.6,66.2,61,30.00,10.0,SSE,5.8,-,N/A,,Scattered Clouds,160,2013-07-27 19:55:00
4:15 PM,80.6,66.2,61,29.99,10.0,SE,9.2,-,N/A,,Partly Cloudy,140,2013-07-27 20:15:00
4:35 PM,78.8,66.2,65,29.99,10.0,SE,8.1,-,N/A,,Partly Cloudy,140,2013-07-27 20:35:00
4:55 PM,80.6,66.2,61,29.98,10.0,SE,8.1,-,N/A,,Clear,130,2013-07-27 20:55:00
5:15 PM,80.6,66.2,61,29.98,10.0,SSE,8.1,-,N/A,,Clear,150,2013-07-27 21:15:00
5:35 PM,78.8,66.2,65,29.97,10.0,SSE,5.8,-,N/A,,Partly Cloudy,150,2013-07-27 21:35:00
5:55 PM,78.8,66.2,65,29.97,10.0,SSE,5.8,-,N/A,,Partly Cloudy,150,2013-07-27 21:55:00
6:15 PM,78.8,66.2,65,29.97,10.0,SSE,8.1,-,N/A,,Clear,160,2013-07-27 22:15:00
6:35 PM,78.8,66.2,65,29.98,10.0,SE,6.9,-,N/A,,Clear,140,2013-07-27 22:35:00
6:55 PM,77.0,66.2,69,29.99,10.0,SSE,6.9,-,N/A,,Clear,150,2013-07-27 22:55:00
7:15 PM,75.2,66.2,73,30.00,10.0,SSE,5.8,-,N/A,,Clear,160,2013-07-27 23:15:00
7:35 PM,75.2,64.4,69,30.00,10.0,SE,6.9,-,N/A,,Clear,140,2013-07-27 23:35:00
7:55 PM,75.2,64.4,69,30.00,10.0,SE,8.1,-,N/A,,Clear,140,2013-07-27 23:55:00
8:15 PM,73.4,62.6,69,30.00,10.0,SSE,6.9,-,N/A,,Scattered Clouds,160,2013-07-28 00:15:00
8:35 PM,73.4,62.6,69,30.00,10.0,SSE,5.8,-,N/A,,Scattered Clouds,150,2013-07-28 00:35:00
8:55 PM,73.4,60.8,65,30.01,10.0,SSE,6.9,-,N/A,,Partly Cloudy,150,2013-07-28 00:55:00
9:15 PM,73.4,60.8,65,30.01,10.0,SSE,4.6,-,N/A,,Clear,150,2013-07-28 01:15:00
9:35 PM,71.6,60.8,69,30.01,10.0,SSE,4.6,-,N/A,,Scattered Clouds,150,2013-07-28 01:35:00
9:55 PM,71.6,60.8,69,30.01,10.0,SSE,4.6,-,N/A,,Scattered Clouds,150,2013-07-28 01:55:00
10:15 PM,71.6,60.8,69,30.00,10.0,SE,5.8,-,N/A,,Partly Cloudy,140,2013-07-28 02:15:00
10:35 PM,71.6,60.8,69,30.00,10.0,Calm,Calm,-,N/A,,Clear,0,2013-07-28 02:35:00
10:55 PM,69.8,60.8,73,29.99,10.0,SE,3.5,-,N/A,,Clear,130,2013-07-28 02:55:00
11:15 PM,69.8,62.6,78,29.99,10.0,Calm,Calm,-,N/A,,Partly Cloudy,0,2013-07-28 03:15:00
11:35 PM,69.8,62.6,78,29.99,10.0,SSE,4.6,-,N/A,,Partly Cloudy,150,2013-07-28 03:35:00
11:55 PM,69.8,62.6,78,29.99,10.0,Calm,Calm,-,N/A,,Clear,0,2013-07-28 03:55:00